Location: Newark
(41.6478°N, 9.0078°E)
Time: 20:58:16
(UTC+00:00)

UWE-3 - Pass Details

Date: 03 February 2020
Orbit: 586 x 682 km, 97.6° (Epoch: 26 February)

Event Time Altitude Azimuth Distance (km) Brightness Sun altitude
Rises 05:07:31 0° 10° (N) 2,922 ? -16.5°
Reaches altitude 10° 05:09:42 10° 8° (N) 2,025 ? -16.1°
Maximum altitude 05:14:06 73° 285° (WNW) 679 ? -15.3°
Drops below altitude 10° 05:18:36 10° 200° (SSW) 2,068 ? -14.5°
Sets 05:20:51 0° 199° (SSW) 2,989 ? -14.1°
